Wind_Speed
22 22 22 22 23 23 24 25 25 23 22 21 22 23 24 24 24 25 25 24 23 23 24 23 25 26 29 30 29 28 28 29 30 31 33 35 36 36 36 36 36 36 37 36
22 22 22 22 22 23 23 24 24 23 22 23 23 23 23 23 23 24 24 24 23 23 24 24 24 25 26 27 28 28 28 28 29 29 30 32 34 35 35 34 34 33 34 35
22 21 22 22 22 23 23 23 24 24 23 23 24 24 23 23 23 23 23 23 23 22 23 24 24 25 26 25 27 27 28 29 30 29 30 31 32 33 33 32 32 32 33 33
21 22 23 22 22 22 22 22 23 23 23 23 24 24 24 24 24 24 23 22 22 22 23 23 24 25 25 26 27 28 29 29 29 30 30 30 31 32 32 32 32 31 32 32
23 23 23 22 22 22 23 22 23 24 24 24 25 26 25 24 24 25 25 24 24 24 24 24 25 25 25 26 27 28 29 29 29 30 30 30 30 31 32 32 32 31 31 32
24 24 23 22 23 23 24 23 23 24 24 24 25 26 25 25 25 25 25 25 25 24 24 24 24 24 25 26 27 27 27 28 28 28 29 29 30 30 31 31 31 31 31 31
23 24 23 23 24 24 24 25 24 25 25 25 26 26 26 26 26 25 25 25 24 24 24 24 24 24 25 26 27 27 27 27 27 27 28 29 29 29 30 31 31 30 30 30
22 23 24 24 25 25 25 25 25 26 26 26 26 27 27 26 26 25 24 24 23 24 24 24 24 25 25 25 26 27 26 26 26 27 27 28 28 28 29 30 29 29 29 30
22 23 24 24 25 26 26 26 26 27 27 26 26 26 27 26 26 25 24 23 23 24 24 25 25 25 24 24 24 24 24 24 24 24 24 25 25 26 28 29 28 28 29 29
22 22 23 24 25 25 25 26 27 27 27 26 26 26 26 26 25 24 23 23 23 22 23 24 24 24 23 22 22 22 22 22 23 23 23 23 23 24 25 26 27 27 28 28
22 22 23 25 25 25 26 26 26 26 26 26 26 25 25 25 24 23 22 23 23 23 23 22 22 22 21 21 20 21 21 22 22 23 23 24 24 24 25 24 25 25 26 26
23 23 24 24 25 25 26 26 26 26 26 25 25 24 23 23 22 22 22 22 22 22 22 21 21 20 20 21 20 21 21 22 21 21 21 22 23 23 23 23 24 24 24 23
23 23 23 23 24 25 25 26 25 25 25 24 23 23 22 22 22 22 22 22 22 22 21 21 22 21 21 21 21 21 21 21 20 20 20 20 21 21 21 22 22 22 22 22
24 23 23 23 23 23 24 24 24 24 24 24 23 22 22 22 22 22 22 21 21 20 19 19 19 19 20 20 20 21 20 20 19 19 19 19 19 19 20 20 20 20 21 21
24 24 23 23 23 23 23 23 23 24 24 23 22 21 20 20 21 21 21 20 20 19 19 18 18 18 18 17 17 18 18 18 18 18 18 18 18 19 19 20 20 20 20 20
25 24 23 23 23 22 22 23 23 23 23 22 21 21 20 20 20 20 20 19 19 19 19 19 17 17 16 16 15 16 16 17 17 17 17 18 18 18 19 19 20 19 18 18
24 24 24 24 23 22 22 23 23 23 22 22 21 21 20 19 19 19 19 19 19 19 18 17 16 15 15 14 14 14 15 15 16 16 16 17 17 17 18 18 18 18 17 17
24 25 25 25 24 23 23 23 23 23 22 22 21 20 19 18 18 18 18 18 18 18 17 16 16 15 14 14 13 14 14 15 15 16 16 16 17 17 17 16 16 16 16 16
24 24 24 23 24 24 24 24 24 23 22 22 21 19 18 18 17 17 18 18 17 17 16 16 15 14 14 14 14 14 15 15 15 16 16 16 16 16 16 16 16 15 15 16
24 23 23 24 24 25 25 24 24 23 22 21 20 19 19 18 18 18 18 18 17 16 16 15 15 14 14 14 14 14 15 15 15 15 15 15 15 15 15 15 15 15 14 15
24 24 24 24 24 24 24 24 23 22 21 21 20 19 19 19 18 18 18 18 18 17 16 15 15 15 15 15 15 15 15 15 15 15 15 15 14 14 14 14 14 14 14 14
25 25 24 24 24 24 23 23 22 21 21 20 20 20 20 19 19 19 18 18 18 17 16 16 16 16 15 15 15 16 16 15 15 14 14 14 14 14 13 13 13 13 13 13
24 24 24 24 23 23 22 22 21 21 21 20 20 20 20 19 19 19 18 18 18 17 16 15 15 15 15 15 15 15 15 14 14 14 13 13 13 13 12 12 12 12 12 12
24 24 24 24 23 22 22 22 21 21 21 20 20 20 20 19 19 19 19 18 17 16 15 14 14 13 13 13 13 13 13 13 13 13 12 12 12 11 11 11 11 11 12 12
24 23 23 23 23 22 22 21 21 21 20 20 20 20 20 19 19 19 18 17 16 16 15 14 13 12 12 12 12 12 12 12 12 12 12 12 12 11 11 11 11 11 11 12
23 23 23 22 22 22 22 21 21 21 20 20 20 20 19 19 18 18 17 17 16 15 14 13 13 13 13 12 12 12 12 11 11 11 11 11 11 11 11 11 11 11 11 11
23 22 22 21 21 21 21 21 21 21 21 20 19 19 18 18 18 17 16 16 15 14 13 13 13 13 12 11 11 11 10 10 10 10 10 10 10 10 10 10 10 10 10 10
Wind_Direction
295 297 299 301 302 301 301 302 304 305 304 303 300 301 302 300 297 292 291 288 279 274 270 269 269 267 266 266 265 262 259 258 258 256 255 255 253 252 253 255 257 260 259 259
293 295 298 301 304 304 303 303 304 304 303 302 300 301 305 305 302 296 291 288 282 274 273 271 270 270 269 267 264 261 260 260 258 259 258 256 254 253 255 257 260 261 261 259
290 291 295 300 305 306 306 306 305 304 304 303 302 300 302 303 302 299 293 289 283 277 276 275 273 272 269 268 266 263 262 261 260 260 259 258 256 255 258 259 260 261 260 260
289 293 297 301 303 306 306 307 306 305 303 304 306 305 303 301 300 298 295 290 284 279 277 277 276 275 273 270 269 268 266 262 261 259 259 259 258 258 260 262 261 262 260 260
290 293 297 300 303 304 304 305 306 305 304 304 305 306 306 303 300 298 297 292 285 281 279 278 278 276 274 272 271 269 267 263 261 260 260 261 259 258 259 261 261 262 260 260
289 293 297 301 301 301 301 303 305 304 303 303 305 306 307 304 302 300 297 293 287 282 278 279 277 275 275 273 271 269 266 263 262 261 261 259 259 258 259 260 261 262 261 261
287 292 296 300 302 302 302 303 304 304 303 303 304 306 307 305 303 301 296 294 288 283 280 279 277 278 277 274 272 270 266 264 263 263 263 262 262 259 259 260 261 263 262 262
288 293 298 300 301 302 302 301 303 304 303 303 304 305 306 306 305 303 297 293 288 285 283 281 278 278 279 276 273 270 266 264 263 263 264 264 262 260 259 260 263 264 263 262
288 293 296 299 300 301 301 300 300 301 302 301 303 304 304 306 306 304 301 296 290 286 282 281 280 277 276 275 274 271 266 263 261 262 263 263 261 261 260 261 263 262 263 264
288 292 296 299 300 300 300 300 300 300 300 300 301 303 302 303 305 303 300 298 294 288 284 283 282 278 275 275 273 270 266 262 260 261 262 263 263 263 263 263 263 263 264 265
289 294 297 298 298 299 299 300 301 300 300 301 301 302 303 303 304 304 302 300 296 291 287 285 283 278 275 275 272 269 266 263 261 262 263 263 264 263 262 261 262 264 266 267
289 294 297 297 298 299 300 301 301 299 300 300 301 302 303 303 303 304 304 303 299 295 291 287 285 279 275 275 272 270 268 265 264 266 265 264 264 264 263 261 263 266 266 266
286 290 294 298 299 300 301 302 302 301 301 300 299 299 300 301 301 304 306 302 301 299 294 290 286 281 278 276 273 271 268 265 265 265 265 264 264 264 262 261 264 264 264 265
285 288 291 295 298 300 301 302 302 302 303 302 301 299 299 299 300 303 306 305 303 300 297 294 289 284 281 277 273 269 266 265 264 265 264 263 265 265 263 262 262 263 264 266
284 288 291 294 296 299 301 303 304 304 305 303 303 301 300 299 300 302 305 306 305 301 296 294 290 286 282 279 274 267 264 263 263 264 264 265 267 267 266 263 263 264 265 265
285 288 292 294 296 299 301 304 305 305 305 304 303 302 301 301 300 301 303 304 305 302 298 294 290 287 284 281 277 268 263 263 264 265 266 268 268 269 268 266 264 264 266 265
285 288 289 292 295 298 300 301 303 304 304 304 303 302 301 302 302 302 303 303 303 302 300 296 290 288 288 285 277 268 265 266 268 268 268 269 271 272 271 268 267 265 264 262
286 288 291 292 295 298 300 301 301 301 301 301 301 301 300 301 303 303 303 303 302 301 299 297 292 288 285 284 279 270 269 270 270 271 271 271 272 271 272 269 269 265 260 259
286 288 291 293 294 296 297 298 299 299 299 299 299 298 298 300 301 302 303 304 303 300 297 295 292 287 284 282 282 278 274 271 271 272 271 270 272 273 271 269 268 266 261 259
286 287 289 292 295 297 297 296 297 298 298 296 295 295 296 297 298 301 303 303 300 298 294 292 290 286 282 281 280 277 274 271 272 275 275 273 272 272 270 267 266 265 262 259
285 287 289 291 293 296 296 295 294 295 295 293 292 291 292 293 295 299 302 301 300 298 293 290 289 285 282 280 279 277 273 273 274 276 276 274 273 271 268 264 263 262 262 261
287 288 290 292 292 292 293 293 292 292 292 291 290 290 291 292 295 298 301 302 302 299 295 292 289 286 283 281 279 278 276 273 275 275 274 274 273 271 267 262 261 261 262 262
289 289 290 291 291 290 291 291 290 290 290 289 290 290 291 292 293 296 298 300 301 299 297 293 289 287 283 279 280 281 278 275 274 274 273 274 275 272 267 262 260 260 261 260
290 290 291 290 290 290 289 289 288 288 288 289 290 291 292 291 292 294 297 297 297 297 294 290 287 284 283 280 281 282 280 278 276 275 275 276 278 275 268 262 260 259 260 261
293 292 291 290 289 289 288 288 287 286 287 288 289 291 291 291 292 293 294 293 293 293 289 287 285 284 285 285 286 286 281 278 275 273 274 275 276 273 268 264 261 260 262 265
295 293 292 291 289 289 288 287 287 287 287 287 288 289 290 292 292 292 291 289 290 288 284 283 283 285 286 286 286 284 282 279 276 273 274 275 273 270 267 264 260 261 262 262
295 294 292 291 290 289 289 288 288 287 287 287 288 287 288 289 291 291 290 289 288 285 283 283 284 285 287 287 284 282 280 279 277 275 276 274 269 266 265 263 258 257 255 255
Height
5619 5617 5615 5613 5611 5608 5605 5602 5600 5598 5595 5593 5590 5587 5585 5582 5579 5577 5574 5573 5572 5571 5571 5571 5571 5571 5571 5572 5572 5573 5574 5576 5577 5579 5581 5583 5585 5587 5589 5592 5594 5596 5598 5601
5614 5612 5610 5608 5606 5603 5600 5597 5595 5592 5590 5588 5585 5582 5579 5577 5574 5572 5569 5568 5566 5566 5565 5565 5565 5565 5565 5565 5566 5566 5567 5568 5570 5572 5573 5575 5576 5578 5580 5583 5585 5587 5589 5591
5608 5607 5605 5604 5602 5599 5596 5593 5590 5587 5586 5582 5580 5577 5575 5572 5570 5567 5564 5563 5561 5560 5560 5559 5559 5559 5559 5559 5559 5559 5560 5562 5563 5564 5566 5567 5569 5571 5572 5574 5576 5578 5580 5582
5602 5602 5600 5602 5597 5594 5591 5589 5585 5582 5580 5577 5575 5572 5569 5567 5564 5562 5560 5558 5556 5554 5554 5553 5552 5552 5552 5552 5552 5553 5553 5554 5555 5556 5558 5559 5561 5563 5565 5567 5568 5570 5572 5574
5597 5595 5595 5595 5592 5588 5586 5584 5580 5577 5575 5572 5569 5567 5565 5562 5559 5556 5554 5552 5550 5548 5547 5546 5545 5545 5545 5545 5545 5545 5546 5546 5547 5548 5550 5551 5553 5555 5557 5559 5560 5562 5563 5565
5591 5589 5589 5590 5586 5582 5581 5579 5576 5572 5570 5567 5564 5562 5561 5557 5554 5551 5548 5546 5544 5542 5541 5540 5539 5538 5538 5538 5538 5538 5538 5539 5539 5540 5542 5543 5545 5547 5549 5551 5552 5554 5555 5556
5585 5583 5584 5584 5580 5577 5576 5574 5570 5567 5564 5561 5559 5556 5554 5550 5548 5545 5542 5540 5538 5536 5535 5534 5533 5532 5531 5531 5531 5531 5531 5531 5532 5533 5534 5535 5537 5539 5541 5543 5544 5545 5547 5548
5580 5579 5581 5577 5574 5572 5570 5567 5564 5561 5558 5556 5553 5550 5547 5544 5541 5538 5536 5533 5531 5530 5529 5527 5526 5525 5525 5524 5523 5523 5523 5524 5524 5525 5526 5528 5529 5531 5533 5535 5536 5537 5539 5540
5576 5576 5573 5571 5568 5566 5563 5561 5558 5555 5553 5550 5547 5544 5542 5539 5536 5533 5530 5528 5526 5524 5523 5521 5520 5519 5518 5517 5516 5516 5516 5516 5517 5518 5519 5520 5522 5523 5525 5527 5528 5529 5531 5532
5570 5570 5567 5564 5562 5559 5557 5554 5552 5549 5547 5544 5541 5538 5536 5533 5530 5527 5524 5522 5520 5518 5516 5515 5513 5512 5511 5511 5510 5510 5509 5510 5510 5512 5513 5514 5515 5516 5517 5519 5520 5521 5523 5524
5564 5564 5561 5559 5556 5553 5551 5548 5545 5543 5540 5537 5535 5532 5529 5527 5524 5521 5519 5517 5514 5512 5510 5509 5507 5506 5505 5505 5504 5504 5504 5504 5505 5505 5506 5507 5508 5509 5510 5512 5513 5514 5515 5516
5558 5557 5555 5553 5550 5547 5545 5542 5539 5537 5534 5531 5529 5526 5523 5521 5518 5516 5514 5512 5509 5507 5505 5504 5502 5501 5500 5499 5498 5498 5498 5498 5499 5499 5500 5501 5502 5503 5503 5505 5506 5506 5508 5509
5552 5550 5548 5546 5544 5541 5538 5536 5533 5530 5528 5525 5523 5520 5518 5516 5513 5511 5509 5507 5504 5502 5500 5498 5496 5495 5494 5493 5493 5493 5492 5492 5493 5493 5494 5495 5495 5496 5497 5498 5499 5500 5501 5502
5545 5544 5542 5540 5538 5535 5533 5530 5527 5525 5522 5519 5517 5514 5512 5510 5508 5506 5504 5502 5500 5497 5495 5493 5491 5490 5489 5488 5487 5487 5487 5487 5487 5488 5488 5489 5490 5490 5491 5492 5492 5493 5494 5495
5539 5537 5536 5535 5532 5530 5527 5524 5522 5519 5516 5514 5511 5509 5507 5505 5503 5501 5499 5497 5495 5493 5491 5489 5487 5485 5484 5483 5482 5482 5482 5482 5482 5483 5483 5484 5484 5485 5485 5486 5487 5487 5488 5488
5532 5531 5530 5528 5526 5524 5521 5519 5516 5514 5511 5509 5506 5504 5502 5500 5498 5496 5494 5492 5491 5488 5486 5484 5482 5481 5479 5479 5478 5477 5477 5477 5478 5478 5478 5478 5478 5479 5479 5480 5481 5481 5482 5483
5526 5525 5523 5522 5520 5518 5516 5513 5511 5508 5506 5503 5501 5499 5497 5495 5493 5491 5490 5488 5486 5484 5482 5480 5478 5477 5476 5475 5474 5474 5474 5473 5473 5473 5473 5473 5473 5474 5474 5475 5475 5476 5477 5477
5519 5518 5517 5515 5514 5512 5510 5507 5505 5502 5500 5498 5496 5494 5492 5491 5489 5487 5485 5483 5481 5480 5478 5476 5474 5473 5472 5471 5470 5470 5470 5470 5469 5469 5469 5469 5469 5469 5470 5470 5470 5471 5471 5472
5512 5511 5510 5508 5507 5505 5503 5501 5499 5497 5495 5493 5491 5489 5487 5486 5484 5483 5481 5479 5477 5475 5473 5472 5470 5469 5468 5467 5467 5466 5466 5465 5465 5465 5465 5465 5465 5465 5465 5465 5466 5466 5467 5468
5505 5504 5503 5502 5500 5498 5496 5495 5493 5491 5489 5487 5485 5484 5482 5481 5480 5478 5476 5474 5472 5471 5469 5468 5466 5465 5464 5464 5463 5462 5462 5461 5461 5461 5460 5460 5460 5460 5460 5461 5461 5462 5462 5463
5499 5497 5496 5495 5493 5491 5490 5488 5486 5484 5483 5481 5480 5479 5477 5476 5475 5473 5471 5470 5468 5466 5465 5463 5462 5461 5460 5459 5458 5458 5457 5457 5457 5456 5456 5456 5456 5456 5456 5456 5457 5458 5458 5459
5492 5491 5489 5488 5486 5485 5483 5481 5480 5478 5477 5476 5474 5473 5472 5471 5470 5468 5466 5465 5463 5461 5460 5459 5458 5457 5456 5455 5454 5453 5453 5452 5452 5452 5451 5451 5451 5451 5451 5452 5452 5453 5454 5455
5485 5484 5482 5481 5479 5478 5476 5475 5474 5472 5471 5470 5469 5468 5467 5465 5464 5463 5462 5460 5458 5457 5455 5454 5453 5452 5451 5450 5449 5449 5448 5447 5447 5447 5447 5446 5446 5447 5447 5447 5448 5449 5450 5451
5478 5477 5476 5474 5473 5471 5470 5469 5467 5466 5465 5464 5463 5462 5461 5460 5459 5458 5456 5455 5453 5452 5450 5449 5448 5448 5447 5446 5445 5444 5444 5443 5443 5443 5443 5443 5443 5443 5443 5444 5445 5445 5446 5447
5471 5470 5469 5467 5466 5465 5464 5462 5461 5460 5459 5458 5457 5456 5455 5454 5453 5452 5451 5449 5448 5447 5446 5445 5444 5443 5443 5442 5441 5440 5440 5439 5439 5439 5439 5439 5439 5439 5440 5440 5441 5442 5443 5444
5465 5463 5462 5461 5459 5458 5457 5456 5455 5454 5453 5452 5451 5450 5449 5448 5447 5446 5445 5444 5443 5442 5441 5441 5440 5440 5439 5438 5437 5437 5436 5436 5435 5435 5435 5435 5436 5436 5436 5437 5438 5438 5439 5440
5458 5456 5455 5454 5453 5452 5451 5450 5449 5448 5447 5446 5445 5444 5444 5443 5442 5441 5440 5439 5438 5437 5437 5436 5436 5435 5435 5434 5433 5433 5433 5432 5432 5432 5432 5432 5432 5432 5433 5434 5434 5435 5436 5437